Time,TemperatureF,DewpointF,PressureIn,WindDirection,WindDirectionDegrees,WindSpeedMPH,WindSpeedGustMPH,Humidity,HourlyPrecipIn,Conditions,Clouds,dailyrainin,SoftwareType,DateUTC
2013-06-12 00:01:00,77.7,77.7,29.99,WSW,245,11.0,13.0,100,0.00,,---,0.00,VWS V14.00,2013-06-12 04:01:00,
2013-06-12 00:06:00,77.7,77.7,29.99,West,269,8.0,14.0,100,0.00,,---,0.00,VWS V14.00,2013-06-12 04:06:00,
2013-06-12 00:11:00,77.7,77.7,29.99,WSW,255,11.0,14.0,100,0.00,,---,0.00,VWS V14.00,2013-06-12 04:11:00,
2013-06-12 00:16:00,77.7,77.7,29.99,West,271,9.0,14.0,100,0.00,,---,0.00,VWS V14.00,2013-06-12 04:16:00,
2013-06-12 00:21:00,77.7,77.7,29.99,West,273,10.0,14.0,100,0.00,,---,0.00,VWS V14.00,2013-06-12 04:21:00,
2013-06-12 00:26:00,77.8,77.8,29.99,West,264,11.0,14.0,100,0.00,,---,0.00,VWS V14.00,2013-06-12 04:26:00,
2013-06-12 00:31:00,77.8,77.8,30.00,WSW,258,10.0,12.0,100,0.00,,---,0.00,VWS V14.00,2013-06-12 04:31:00,
2013-06-12 00:36:00,77.7,77.7,29.99,West,268,7.0,12.0,100,0.00,,---,0.00,VWS V14.00,2013-06-12 04:36:00,
2013-06-12 00:41:00,77.7,77.7,30.00,West,263,10.0,13.0,100,0.00,,---,0.00,VWS V14.00,2013-06-12 04:41:00,
2013-06-12 00:46:00,77.7,77.7,29.99,West,265,8.0,13.0,100,0.00,,---,0.00,VWS V14.00,2013-06-12 04:46:00,
2013-06-12 00:51:00,77.6,77.6,29.99,WSW,257,8.0,13.0,100,0.00,,---,0.00,VWS V14.00,2013-06-12 04:51:00,
2013-06-12 00:56:00,77.6,77.6,29.99,WSW,250,9.0,13.0,100,0.00,,---,0.00,VWS V14.00,2013-06-12 04:56:00,
2013-06-12 01:01:00,77.5,77.5,29.99,West,259,9.0,12.0,100,0.00,,---,0.00,VWS V14.00,2013-06-12 05:01:00,
2013-06-12 01:06:00,77.4,77.4,29.98,WSW,255,8.0,12.0,100,0.00,,---,0.00,VWS V14.00,2013-06-12 05:06:00,
2013-06-12 01:11:00,77.4,77.4,29.98,West,264,8.0,12.0,100,0.00,,---,0.00,VWS V14.00,2013-06-12 05:11:00,
2013-06-12 01:16:00,77.4,77.4,29.98,West,262,8.0,12.0,100,0.00,,---,0.00,VWS V14.00,2013-06-12 05:16:00,
2013-06-12 01:22:00,77.4,77.4,29.99,West,268,6.0,12.0,100,0.00,,---,0.00,VWS V14.00,2013-06-12 05:22:00,
2013-06-12 01:27:00,77.4,77.4,29.98,WSW,255,9.0,12.0,100,0.00,,---,0.00,VWS V14.00,2013-06-12 05:27:00,
2013-06-12 01:32:00,77.3,77.3,29.99,WSW,256,7.0,10.0,100,0.00,,---,0.00,VWS V14.00,2013-06-12 05:32:00,
2013-06-12 01:37:00,77.2,77.2,29.98,WSW,250,6.0,10.0,100,0.00,,---,0.00,VWS V14.00,2013-06-12 05:37:00,
2013-06-12 01:42:00,77.2,77.2,29.98,WSW,247,7.0,10.0,100,0.00,,---,0.00,VWS V14.00,2013-06-12 05:42:00,
2013-06-12 01:47:00,77.1,77.1,29.98,West,262,5.0,10.0,100,0.00,,---,0.00,VWS V14.00,2013-06-12 05:47:00,
2013-06-12 01:52:00,77.0,77.0,29.98,WSW,250,7.0,10.0,100,0.00,,---,0.00,VWS V14.00,2013-06-12 05:52:00,
2013-06-12 01:57:00,77.0,77.0,29.97,WSW,250,7.0,10.0,100,0.00,,---,0.00,VWS V14.00,2013-06-12 05:57:00,
2013-06-12 02:02:00,76.9,76.9,29.97,WSW,253,8.0,9.0,100,0.00,,---,0.00,VWS V14.00,2013-06-12 06:02:00,
2013-06-12 02:07:00,76.9,76.9,29.97,West,270,7.0,9.0,100,0.00,,---,0.00,VWS V14.00,2013-06-12 06:07:00,
2013-06-12 02:12:00,76.8,76.8,29.98,West,273,3.0,9.0,100,0.00,,---,0.00,VWS V14.00,2013-06-12 06:12:00,
2013-06-12 02:17:00,76.8,76.8,29.98,West,273,7.0,9.0,100,0.00,,---,0.00,VWS V14.00,2013-06-12 06:17:00,
2013-06-12 02:22:00,76.7,76.7,29.97,West,270,5.0,9.0,100,0.00,,---,0.00,VWS V14.00,2013-06-12 06:22:00,
2013-06-12 02:27:00,76.7,76.7,29.97,West,273,6.0,9.0,100,0.00,,---,0.00,VWS V14.00,2013-06-12 06:27:00,
2013-06-12 02:32:00,76.7,76.7,29.98,West,274,7.0,8.0,100,0.00,,---,0.00,VWS V14.00,2013-06-12 06:32:00,
2013-06-12 02:37:00,76.6,76.6,29.97,West,274,6.0,8.0,100,0.00,,---,0.00,VWS V14.00,2013-06-12 06:37:00,
2013-06-12 02:42:00,76.6,76.6,29.97,West,274,5.0,8.0,100,0.00,,---,0.00,VWS V14.00,2013-06-12 06:42:00,
2013-06-12 02:47:00,76.6,76.6,29.96,West,273,3.0,8.0,100,0.00,,---,0.00,VWS V14.00,2013-06-12 06:47:00,
2013-06-12 02:52:00,76.5,76.5,29.96,West,268,2.0,8.0,100,0.00,,---,0.00,VWS V14.00,2013-06-12 06:52:00,
2013-06-12 02:57:00,76.5,76.5,29.96,West,274,4.0,8.0,100,0.00,,---,0.00,VWS V14.00,2013-06-12 06:57:00,
2013-06-12 03:02:00,76.4,76.4,29.96,West,272,4.0,6.0,100,0.00,,---,0.00,VWS V14.00,2013-06-12 07:02:00,
2013-06-12 03:07:00,76.4,76.4,29.96,West,273,5.0,7.0,100,0.00,,---,0.00,VWS V14.00,2013-06-12 07:07:00,
2013-06-12 03:12:00,76.3,76.3,29.97,West,273,4.0,7.0,100,0.00,,---,0.00,VWS V14.00,2013-06-12 07:12:00,
2013-06-12 03:17:00,76.3,76.3,29.97,West,273,4.0,7.0,100,0.00,,---,0.00,VWS V14.00,2013-06-12 07:17:00,
2013-06-12 03:22:00,76.3,76.3,29.97,West,273,3.0,7.0,100,0.00,,---,0.00,VWS V14.00,2013-06-12 07:22:00,
2013-06-12 03:27:00,76.3,76.3,29.97,West,273,2.0,7.0,100,0.00,,---,0.00,VWS V14.00,2013-06-12 07:27:00,
2013-06-12 03:32:00,76.2,76.2,29.97,West,273,0.0,0.0,100,0.00,,---,0.00,VWS V14.00,2013-06-12 07:32:00,
2013-06-12 03:37:00,76.1,76.1,29.96,West,273,1.0,4.0,100,0.00,,---,0.00,VWS V14.00,2013-06-12 07:37:00,
2013-06-12 03:42:00,76.1,76.1,29.96,West,273,0.0,4.0,100,0.00,,---,0.00,VWS V14.00,2013-06-12 07:42:00,
2013-06-12 03:47:00,76.0,76.0,29.96,West,273,0.0,4.0,100,0.00,,---,0.00,VWS V14.00,2013-06-12 07:47:00,
2013-06-12 03:52:00,75.9,75.9,29.96,West,273,0.0,4.0,100,0.00,,---,0.00,VWS V14.00,2013-06-12 07:52:00,
2013-06-12 03:57:00,75.9,75.9,29.96,West,273,2.0,4.0,100,0.00,,---,0.00,VWS V14.00,2013-06-12 07:57:00,
2013-06-12 04:02:00,75.9,75.9,29.96,West,273,2.0,4.0,100,0.00,,---,0.00,VWS V14.00,2013-06-12 08:02:00,
2013-06-12 04:07:00,76.0,76.0,29.96,West,272,1.0,4.0,100,0.00,,---,0.00,VWS V14.00,2013-06-12 08:07:00,
2013-06-12 04:12:00,75.9,75.9,29.96,West,273,0.0,4.0,100,0.00,,---,0.00,VWS V14.00,2013-06-12 08:12:00,
2013-06-12 04:17:00,75.8,75.8,29.96,West,272,0.0,4.0,100,0.00,,---,0.00,VWS V14.00,2013-06-12 08:17:00,
2013-06-12 04:22:00,75.7,75.7,29.96,West,273,0.0,4.0,100,0.00,,---,0.00,VWS V14.00,2013-06-12 08:22:00,
2013-06-12 04:27:00,75.5,75.5,29.96,West,273,3.0,4.0,100,0.00,,---,0.00,VWS V14.00,2013-06-12 08:27:00,
2013-06-12 04:32:00,75.4,75.4,29.96,West,273,1.0,2.0,100,0.00,,---,0.00,VWS V14.00,2013-06-12 08:32:00,
2013-06-12 04:37:00,75.3,75.3,29.96,West,273,0.0,2.0,100,0.00,,---,0.00,VWS V14.00,2013-06-12 08:37:00,
2013-06-12 04:42:00,75.2,75.2,29.96,West,273,0.0,2.0,100,0.00,,---,0.00,VWS V14.00,2013-06-12 08:42:00,
2013-06-12 04:47:00,75.1,75.1,29.96,West,272,0.0,2.0,100,0.00,,---,0.00,VWS V14.00,2013-06-12 08:47:00,
2013-06-12 04:52:00,75.0,75.0,29.96,West,273,0.0,2.0,100,0.00,,---,0.00,VWS V14.00,2013-06-12 08:52:00,
2013-06-12 04:57:00,75.0,75.0,29.96,West,273,0.0,2.0,100,0.00,,---,0.00,VWS V14.00,2013-06-12 08:57:00,
2013-06-12 05:02:00,75.0,75.0,29.97,West,273,0.0,0.0,100,0.00,,---,0.00,VWS V14.00,2013-06-12 09:02:00,
2013-06-12 05:07:00,75.0,75.0,29.97,West,273,0.0,1.0,100,0.00,,---,0.00,VWS V14.00,2013-06-12 09:07:00,
2013-06-12 05:12:00,74.9,74.9,29.97,West,273,2.0,4.0,100,0.00,,---,0.00,VWS V14.00,2013-06-12 09:12:00,
2013-06-12 05:17:00,74.9,74.9,29.97,West,272,3.0,4.0,100,0.00,,---,0.00,VWS V14.00,2013-06-12 09:17:00,
2013-06-12 05:22:00,74.9,74.9,29.97,West,272,3.0,4.0,100,0.00,,---,0.00,VWS V14.00,2013-06-12 09:22:00,
2013-06-12 05:27:00,74.8,74.8,29.97,West,272,3.0,4.0,100,0.00,,---,0.00,VWS V14.00,2013-06-12 09:27:00,
2013-06-12 05:32:00,74.7,74.7,29.97,West,273,0.0,3.0,100,0.00,,---,0.00,VWS V14.00,2013-06-12 09:32:00,
2013-06-12 05:37:00,74.6,74.6,29.97,West,272,0.0,3.0,100,0.00,,---,0.00,VWS V14.00,2013-06-12 09:37:00,
2013-06-12 05:42:00,74.6,74.6,29.97,West,273,0.0,3.0,100,0.00,,---,0.00,VWS V14.00,2013-06-12 09:42:00,
2013-06-12 05:47:00,74.6,74.6,29.97,West,273,0.0,3.0,100,0.00,,---,0.00,VWS V14.00,2013-06-12 09:47:00,
2013-06-12 05:52:00,74.5,74.5,29.97,West,272,0.0,3.0,100,0.00,,---,0.00,VWS V14.00,2013-06-12 09:52:00,
2013-06-12 05:57:00,74.5,74.5,29.97,West,273,0.0,3.0,100,0.00,,---,0.00,VWS V14.00,2013-06-12 09:57:00,
2013-06-12 06:01:00,74.5,74.5,29.97,West,273,0.0,0.0,100,0.00,,---,0.00,VWS V14.00,2013-06-12 10:01:00,
2013-06-12 06:06:00,74.5,74.5,29.97,West,272,0.0,0.0,100,0.00,,---,0.00,VWS V14.00,2013-06-12 10:06:00,
2013-06-12 06:11:00,74.5,74.5,29.97,West,273,0.0,0.0,100,0.00,,---,0.00,VWS V14.00,2013-06-12 10:11:00,
2013-06-12 06:16:00,74.5,74.5,29.98,West,272,0.0,0.0,100,0.00,,---,0.00,VWS V14.00,2013-06-12 10:16:00,
2013-06-12 06:21:00,74.5,74.5,29.98,West,273,0.0,0.0,100,0.00,,---,0.00,VWS V14.00,2013-06-12 10:21:00,
2013-06-12 06:26:00,74.5,74.5,29.98,West,273,2.0,3.0,100,0.00,,---,0.00,VWS V14.00,2013-06-12 10:26:00,
2013-06-12 06:31:00,74.6,74.6,29.99,West,273,1.0,3.0,100,0.00,,---,0.00,VWS V14.00,2013-06-12 10:31:00,
2013-06-12 06:36:00,74.6,74.6,29.99,West,273,1.0,3.0,100,0.00,,---,0.00,VWS V14.00,2013-06-12 10:36:00,
2013-06-12 06:41:00,74.7,74.7,29.99,West,273,2.0,4.0,100,0.00,,---,0.00,VWS V14.00,2013-06-12 10:41:00,
2013-06-12 06:46:00,74.8,74.8,30.00,West,273,3.0,5.0,100,0.00,,---,0.00,VWS V14.00,2013-06-12 10:46:00,
2013-06-12 06:51:00,74.9,74.9,30.00,West,273,4.0,5.0,100,0.00,,---,0.00,VWS V14.00,2013-06-12 10:51:00,
2013-06-12 06:56:00,74.9,74.9,30.00,West,275,4.0,6.0,100,0.00,,---,0.00,VWS V14.00,2013-06-12 10:56:00,
2013-06-12 07:01:00,75.0,75.0,30.00,West,275,3.0,5.0,100,0.00,,---,0.00,VWS V14.00,2013-06-12 11:01:00,
2013-06-12 07:06:00,75.1,75.1,30.01,West,275,7.0,9.0,100,0.00,,---,0.00,VWS V14.00,2013-06-12 11:06:00,
2013-06-12 07:11:00,75.1,75.1,30.01,West,280,9.0,10.0,100,0.00,,---,0.00,VWS V14.00,2013-06-12 11:11:00,
2013-06-12 07:16:00,75.1,75.1,30.01,West,275,5.0,10.0,100,0.00,,---,0.00,VWS V14.00,2013-06-12 11:16:00,
2013-06-12 07:21:00,75.2,75.2,30.01,West,269,5.0,10.0,100,0.00,,---,0.00,VWS V14.00,2013-06-12 11:21:00,
2013-06-12 07:26:00,75.4,75.4,30.01,West,274,5.0,10.0,100,0.00,,---,0.00,VWS V14.00,2013-06-12 11:26:00,
2013-06-12 07:31:00,75.5,75.5,30.01,WNW,287,7.0,10.0,100,0.00,,---,0.00,VWS V14.00,2013-06-12 11:31:00,
2013-06-12 07:36:00,75.6,75.6,30.00,WNW,285,8.0,10.0,100,0.00,,---,0.00,VWS V14.00,2013-06-12 11:36:00,
2013-06-12 07:41:00,75.7,75.7,30.00,WNW,289,6.0,10.0,100,0.00,,---,0.00,VWS V14.00,2013-06-12 11:41:00,
2013-06-12 07:46:00,75.8,75.8,30.01,WNW,290,9.0,10.0,100,0.00,,---,0.00,VWS V14.00,2013-06-12 11:46:00,
2013-06-12 07:51:00,75.8,75.8,30.01,WNW,292,7.0,10.0,100,0.00,,---,0.00,VWS V14.00,2013-06-12 11:51:00,
2013-06-12 07:56:00,75.8,75.8,30.01,WNW,301,7.0,10.0,100,0.00,,---,0.00,VWS V14.00,2013-06-12 11:56:00,
2013-06-12 08:01:00,75.8,75.8,30.01,WNW,293,8.0,10.0,100,0.00,,---,0.00,VWS V14.00,2013-06-12 12:01:00,
2013-06-12 08:06:00,75.7,75.7,30.01,WNW,297,7.0,10.0,100,0.00,,---,0.00,VWS V14.00,2013-06-12 12:06:00,
2013-06-12 08:11:00,75.7,75.7,30.01,WNW,292,8.0,10.0,100,0.00,,---,0.00,VWS V14.00,2013-06-12 12:11:00,
2013-06-12 08:16:00,75.6,75.6,30.01,WNW,294,8.0,10.0,100,0.00,,---,0.00,VWS V14.00,2013-06-12 12:16:00,
2013-06-12 08:21:00,75.6,75.6,30.01,WNW,296,8.0,10.0,100,0.00,,---,0.00,VWS V14.00,2013-06-12 12:21:00,
2013-06-12 08:26:00,75.6,75.6,30.01,WNW,289,9.0,10.0,100,0.00,,---,0.00,VWS V14.00,2013-06-12 12:26:00,
2013-06-12 08:31:00,75.6,75.6,30.01,WNW,289,8.0,12.0,100,0.00,,---,0.00,VWS V14.00,2013-06-12 12:31:00,
2013-06-12 08:36:00,75.6,75.6,30.02,WNW,292,11.0,13.0,100,0.00,,---,0.00,VWS V14.00,2013-06-12 12:36:00,
2013-06-12 08:41:00,75.6,75.3,30.01,WNW,296,10.0,13.0,99,0.00,,---,0.00,VWS V14.00,2013-06-12 12:41:00,
2013-06-12 08:46:00,75.6,75.6,30.02,WNW,303,10.0,13.0,100,0.00,,---,0.00,VWS V14.00,2013-06-12 12:46:00,
2013-06-12 08:51:00,75.6,75.3,30.01,WNW,299,9.0,13.0,99,0.00,,---,0.00,VWS V14.00,2013-06-12 12:51:00,
2013-06-12 08:56:00,75.7,75.4,30.01,WNW,289,9.0,13.0,99,0.00,,---,0.00,VWS V14.00,2013-06-12 12:56:00,
2013-06-12 09:01:00,75.7,75.1,30.01,WNW,294,8.0,11.0,98,0.00,,---,0.00,VWS V14.00,2013-06-12 13:01:00,
2013-06-12 09:06:00,75.8,75.2,30.01,WNW,288,10.0,12.0,98,0.00,,---,0.00,VWS V14.00,2013-06-12 13:06:00,
2013-06-12 09:11:00,75.8,75.2,30.01,WNW,290,9.0,12.0,98,0.00,,---,0.00,VWS V14.00,2013-06-12 13:11:00,
2013-06-12 09:16:00,76.0,75.4,30.01,WNW,292,6.0,12.0,98,0.00,,---,0.00,VWS V14.00,2013-06-12 13:16:00,
2013-06-12 09:21:00,76.1,75.8,30.01,West,271,5.0,12.0,99,0.00,,---,0.00,VWS V14.00,2013-06-12 13:21:00,
2013-06-12 09:26:00,76.3,76.0,30.00,West,280,7.0,12.0,99,0.00,,---,0.00,VWS V14.00,2013-06-12 13:26:00,
2013-06-12 09:31:00,76.5,75.6,30.00,WNW,286,7.0,8.0,97,0.00,,---,0.00,VWS V14.00,2013-06-12 13:31:00,
2013-06-12 09:36:00,76.6,75.1,30.00,West,275,5.0,9.0,95,0.00,,---,0.00,VWS V14.00,2013-06-12 13:36:00,
2013-06-12 09:41:00,76.9,75.7,30.00,WSW,249,8.0,9.0,96,0.00,,---,0.00,VWS V14.00,2013-06-12 13:41:00,
2013-06-12 09:46:00,77.1,75.2,30.00,WSW,253,8.0,10.0,94,0.00,,---,0.00,VWS V14.00,2013-06-12 13:46:00,
2013-06-12 09:51:00,77.4,75.2,30.00,West,261,9.0,10.0,93,0.00,,---,0.00,VWS V14.00,2013-06-12 13:51:00,
2013-06-12 09:56:00,77.5,74.7,29.99,West,260,6.0,10.0,91,0.00,,---,0.00,VWS V14.00,2013-06-12 13:56:00,
2013-06-12 10:01:00,77.6,74.8,29.99,West,277,6.0,8.0,91,0.00,,---,0.00,VWS V14.00,2013-06-12 14:01:00,
2013-06-12 10:06:00,77.8,75.0,29.99,WSW,256,5.0,9.0,91,0.00,,---,0.00,VWS V14.00,2013-06-12 14:06:00,
2013-06-12 10:11:00,78.0,75.5,29.99,WNW,286,7.0,9.0,92,0.00,,---,0.00,VWS V14.00,2013-06-12 14:11:00,
2013-06-12 10:16:00,78.2,74.7,29.99,West,277,4.0,9.0,89,0.00,,---,0.00,VWS V14.00,2013-06-12 14:16:00,
2013-06-12 10:21:00,78.4,75.6,29.99,WNW,288,5.0,9.0,91,0.00,,---,0.00,VWS V14.00,2013-06-12 14:21:00,
2013-06-12 10:26:00,78.7,74.8,29.99,WSW,249,8.0,9.0,88,0.00,,---,0.00,VWS V14.00,2013-06-12 14:26:00,
2013-06-12 10:31:00,78.9,74.7,30.00,WSW,256,8.0,9.0,87,0.00,,---,0.00,VWS V14.00,2013-06-12 14:31:00,
2013-06-12 10:36:00,79.2,76.0,30.00,WSW,249,5.0,9.0,90,0.00,,---,0.00,VWS V14.00,2013-06-12 14:36:00,
2013-06-12 10:41:00,79.5,76.3,29.99,SW,232,5.0,9.0,90,0.00,,---,0.00,VWS V14.00,2013-06-12 14:41:00,
2013-06-12 10:46:00,79.8,76.6,29.99,WSW,254,5.0,10.0,90,0.00,,---,0.00,VWS V14.00,2013-06-12 14:46:00,
2013-06-12 10:51:00,79.9,76.0,30.00,West,263,7.0,10.0,88,0.00,,---,0.00,VWS V14.00,2013-06-12 14:51:00,
2013-06-12 10:56:00,80.2,77.3,30.00,WSW,243,7.0,10.0,91,0.00,,---,0.00,VWS V14.00,2013-06-12 14:56:00,
2013-06-12 11:01:00,80.5,77.6,30.00,WSW,256,8.0,9.0,91,0.00,,---,0.00,VWS V14.00,2013-06-12 15:01:00,
2013-06-12 11:06:00,80.4,77.2,30.00,WSW,249,7.0,9.0,90,0.00,,---,0.00,VWS V14.00,2013-06-12 15:06:00,
2013-06-12 11:11:00,80.5,77.3,30.00,SW,221,7.0,10.0,90,0.00,,---,0.00,VWS V14.00,2013-06-12 15:11:00,
2013-06-12 11:16:00,80.9,77.4,30.00,WSW,237,9.0,11.0,89,0.00,,---,0.00,VWS V14.00,2013-06-12 15:16:00,
2013-06-12 11:21:00,81.2,77.3,30.00,SW,235,11.0,11.0,88,0.00,,---,0.00,VWS V14.00,2013-06-12 15:21:00,
2013-06-12 11:26:00,81.4,77.5,30.00,SW,234,10.0,11.0,88,0.00,,---,0.00,VWS V14.00,2013-06-12 15:26:00,
2013-06-12 11:31:00,81.5,76.9,30.00,SW,222,8.0,13.0,86,0.00,,---,0.00,VWS V14.00,2013-06-12 15:31:00,
2013-06-12 11:36:00,81.6,77.0,30.00,SW,235,12.0,13.0,86,0.00,,---,0.00,VWS V14.00,2013-06-12 15:36:00,
2013-06-12 11:41:00,81.7,76.8,30.00,SW,226,8.0,13.0,85,0.00,,---,0.00,VWS V14.00,2013-06-12 15:41:00,
2013-06-12 11:46:00,81.9,77.3,30.00,SW,229,9.0,13.0,86,0.00,,---,0.00,VWS V14.00,2013-06-12 15:46:00,
2013-06-12 11:51:00,82.1,77.8,30.00,SW,226,10.0,15.0,87,0.00,,---,0.00,VWS V14.00,2013-06-12 15:51:00,
2013-06-12 11:56:00,82.1,77.2,30.00,SW,234,8.0,15.0,85,0.00,,---,0.00,VWS V14.00,2013-06-12 15:56:00,
2013-06-12 12:01:00,82.2,77.6,30.00,SW,220,10.0,13.0,86,0.00,,---,0.00,VWS V14.00,2013-06-12 16:01:00,
2013-06-12 12:06:00,82.4,78.5,30.00,SW,235,11.0,14.0,88,0.00,,---,0.00,VWS V14.00,2013-06-12 16:06:00,
2013-06-12 12:11:00,82.4,77.8,30.00,SW,227,7.0,14.0,86,0.00,,---,0.00,VWS V14.00,2013-06-12 16:11:00,
2013-06-12 12:16:00,82.6,77.3,30.00,SW,225,10.0,14.0,84,0.00,,---,0.00,VWS V14.00,2013-06-12 16:16:00,
2013-06-12 12:21:00,82.7,77.7,30.00,SW,221,12.0,14.0,85,0.00,,---,0.00,VWS V14.00,2013-06-12 16:21:00,
2013-06-12 12:26:00,82.9,77.9,30.00,SW,221,9.0,14.0,85,0.00,,---,0.00,VWS V14.00,2013-06-12 16:26:00,
2013-06-12 12:31:00,82.9,77.2,29.99,SW,236,7.0,13.0,83,0.00,,---,0.00,VWS V14.00,2013-06-12 16:31:00,
2013-06-12 12:36:00,83.2,78.6,29.99,SW,231,11.0,13.0,86,0.00,,---,0.00,VWS V14.00,2013-06-12 16:36:00,
2013-06-12 12:41:00,83.4,78.8,30.00,SW,235,10.0,13.0,86,0.00,,---,0.00,VWS V14.00,2013-06-12 16:41:00,
2013-06-12 12:46:00,83.5,77.4,29.99,WSW,239,9.0,13.0,82,0.00,,---,0.00,VWS V14.00,2013-06-12 16:46:00,
2013-06-12 12:51:00,83.7,79.1,29.99,SW,221,9.0,13.0,86,0.00,,---,0.00,VWS V14.00,2013-06-12 16:51:00,
2013-06-12 12:56:00,84.0,79.0,29.98,SW,231,13.0,13.0,85,0.00,,---,0.00,VWS V14.00,2013-06-12 16:56:00,
2013-06-12 13:01:00,84.0,79.4,29.98,WSW,239,7.0,10.0,86,0.00,,---,0.00,VWS V14.00,2013-06-12 17:01:00,
2013-06-12 13:06:00,84.2,78.8,29.98,SW,222,11.0,13.0,84,0.00,,---,0.00,VWS V14.00,2013-06-12 17:06:00,
2013-06-12 13:11:00,84.4,79.0,29.98,SW,222,9.0,13.0,84,0.00,,---,0.00,VWS V14.00,2013-06-12 17:11:00,
2013-06-12 13:16:00,84.5,78.0,29.98,SW,216,11.0,15.0,81,0.00,,---,0.00,VWS V14.00,2013-06-12 17:16:00,
2013-06-12 13:21:00,84.7,77.8,29.98,SSW,212,12.0,15.0,80,0.00,,---,0.00,VWS V14.00,2013-06-12 17:21:00,
2013-06-12 13:26:00,84.8,76.4,29.97,SW,224,13.0,17.0,76,0.00,,---,0.00,VWS V14.00,2013-06-12 17:26:00,
2013-06-12 13:31:00,84.7,77.8,29.97,SW,221,15.0,18.0,80,0.00,,---,0.00,VWS V14.00,2013-06-12 17:31:00,
2013-06-12 13:36:00,84.9,76.5,29.97,SW,215,17.0,18.0,76,0.00,,---,0.00,VWS V14.00,2013-06-12 17:36:00,
2013-06-12 13:41:00,85.0,77.4,29.97,SW,219,13.0,18.0,78,0.00,,---,0.00,VWS V14.00,2013-06-12 17:41:00,
2013-06-12 13:46:00,85.1,77.9,29.97,SW,214,14.0,18.0,79,0.00,,---,0.00,VWS V14.00,2013-06-12 17:46:00,
2013-06-12 13:51:00,85.2,77.9,29.97,SW,224,12.0,18.0,79,0.00,,---,0.00,VWS V14.00,2013-06-12 17:51:00,
2013-06-12 13:56:00,85.2,77.6,29.97,SW,217,11.0,18.0,78,0.00,,---,0.00,VWS V14.00,2013-06-12 17:56:00,
2013-06-12 14:01:00,85.1,78.2,29.97,SW,228,12.0,16.0,80,0.00,,---,0.00,VWS V14.00,2013-06-12 18:01:00,
2013-06-12 14:06:00,85.2,79.1,29.97,SW,214,13.0,18.0,82,0.00,,---,0.00,VWS V14.00,2013-06-12 18:06:00,
2013-06-12 14:11:00,85.1,79.0,29.98,SSW,202,11.0,18.0,82,0.00,,---,0.00,VWS V14.00,2013-06-12 18:11:00,
2013-06-12 14:16:00,84.8,78.7,29.97,SSW,211,14.0,18.0,82,0.00,,---,0.00,VWS V14.00,2013-06-12 18:16:00,
2013-06-12 14:21:00,84.7,78.2,29.97,SW,219,13.0,18.0,81,0.00,,---,0.00,VWS V14.00,2013-06-12 18:21:00,
2013-06-12 14:26:00,84.8,77.9,29.97,SW,215,12.0,18.0,80,0.00,,---,0.00,VWS V14.00,2013-06-12 18:26:00,
2013-06-12 14:31:00,84.8,78.3,29.97,SSW,210,10.0,20.0,81,0.00,,---,0.00,VWS V14.00,2013-06-12 18:31:00,
2013-06-12 14:36:00,85.0,79.3,29.97,SSW,212,11.0,20.0,83,0.00,,---,0.00,VWS V14.00,2013-06-12 18:36:00,
2013-06-12 14:41:00,85.1,79.4,29.97,SW,220,12.0,20.0,83,0.00,,---,0.00,VWS V14.00,2013-06-12 18:41:00,
2013-06-12 14:46:00,85.2,78.3,29.97,SSW,212,15.0,21.0,80,0.00,,---,0.00,VWS V14.00,2013-06-12 18:46:00,
2013-06-12 14:51:00,85.2,79.1,29.97,SW,223,16.0,21.0,82,0.00,,---,0.00,VWS V14.00,2013-06-12 18:51:00,
2013-06-12 14:56:00,85.2,77.2,29.97,SW,229,16.0,21.0,77,0.00,,---,0.00,VWS V14.00,2013-06-12 18:56:00,
2013-06-12 15:01:00,85.3,78.4,29.96,SW,226,12.0,18.0,80,0.00,,---,0.00,VWS V14.00,2013-06-12 19:01:00,
2013-06-12 15:06:00,85.5,77.5,29.97,SW,223,14.0,18.0,77,0.00,,---,0.00,VWS V14.00,2013-06-12 19:06:00,
2013-06-12 15:11:00,85.5,77.5,29.97,SW,219,13.0,19.0,77,0.00,,---,0.00,VWS V14.00,2013-06-12 19:11:00,
2013-06-12 15:16:00,85.7,78.8,29.97,SW,215,15.0,19.0,80,0.00,,---,0.00,VWS V14.00,2013-06-12 19:16:00,
2013-06-12 15:21:00,85.7,77.3,29.96,SW,220,13.0,19.0,76,0.00,,---,0.00,VWS V14.00,2013-06-12 19:21:00,
2013-06-12 15:26:00,85.6,78.0,29.96,SW,215,12.0,19.0,78,0.00,,---,0.00,VWS V14.00,2013-06-12 19:26:00,
2013-06-12 15:31:00,85.5,78.2,29.96,SW,228,8.0,15.0,79,0.00,,---,0.00,VWS V14.00,2013-06-12 19:31:00,
2013-06-12 15:36:00,85.6,78.0,29.96,SW,229,15.0,17.0,78,0.00,,---,0.00,VWS V14.00,2013-06-12 19:36:00,
2013-06-12 15:41:00,85.6,77.2,29.96,SW,233,17.0,18.0,76,0.00,,---,0.00,VWS V14.00,2013-06-12 19:41:00,
2013-06-12 15:46:00,85.4,78.2,29.96,SW,227,11.0,19.0,79,0.00,,---,0.00,VWS V14.00,2013-06-12 19:46:00,
2013-06-12 15:51:00,85.3,78.4,29.96,WSW,242,10.0,19.0,80,0.00,,---,0.00,VWS V14.00,2013-06-12 19:51:00,
2013-06-12 15:56:00,85.0,77.8,29.96,SW,223,11.0,19.0,79,0.00,,---,0.00,VWS V14.00,2013-06-12 19:56:00,
2013-06-12 16:01:00,84.8,77.9,29.96,SW,231,11.0,15.0,80,0.00,,---,0.00,VWS V14.00,2013-06-12 20:01:00,
2013-06-12 16:06:00,84.7,78.6,29.96,SW,216,10.0,16.0,82,0.00,,---,0.00,VWS V14.00,2013-06-12 20:06:00,
2013-06-12 16:11:00,84.8,77.9,29.96,SW,228,14.0,16.0,80,0.00,,---,0.00,VWS V14.00,2013-06-12 20:11:00,
2013-06-12 16:16:00,84.7,78.2,29.95,SW,215,13.0,17.0,81,0.00,,---,0.00,VWS V14.00,2013-06-12 20:16:00,
2013-06-12 16:21:00,84.7,77.5,29.95,SW,231,11.0,19.0,79,0.00,,---,0.00,VWS V14.00,2013-06-12 20:21:00,
2013-06-12 16:26:00,84.7,77.8,29.95,SW,222,13.0,19.0,80,0.00,,---,0.00,VWS V14.00,2013-06-12 20:26:00,
2013-06-12 16:31:00,84.4,78.3,29.94,SW,224,9.0,16.0,82,0.00,,---,0.00,VWS V14.00,2013-06-12 20:31:00,
2013-06-12 16:36:00,84.3,77.8,29.94,SW,226,9.0,16.0,81,0.00,,---,0.00,VWS V14.00,2013-06-12 20:36:00,
2013-06-12 16:41:00,84.3,78.2,29.94,SSW,212,11.0,20.0,82,0.00,,---,0.00,VWS V14.00,2013-06-12 20:41:00,
2013-06-12 16:46:00,84.4,78.7,29.94,SW,233,14.0,20.0,83,0.00,,---,0.00,VWS V14.00,2013-06-12 20:46:00,
2013-06-12 16:51:00,84.6,78.5,29.93,SW,224,13.0,20.0,82,0.00,,---,0.00,VWS V14.00,2013-06-12 20:51:00,
2013-06-12 16:56:00,84.6,78.5,29.94,SW,225,12.0,20.0,82,0.00,,---,0.00,VWS V14.00,2013-06-12 20:56:00,
2013-06-12 17:01:00,84.4,78.3,29.93,SW,232,13.0,14.0,82,0.00,,---,0.00,VWS V14.00,2013-06-12 21:01:00,
2013-06-12 17:06:00,84.4,79.0,29.94,WSW,238,13.0,19.0,84,0.00,,---,0.00,VWS V14.00,2013-06-12 21:06:00,
2013-06-12 17:11:00,84.5,79.1,29.93,WSW,238,18.0,19.0,84,0.00,,---,0.00,VWS V14.00,2013-06-12 21:11:00,
2013-06-12 17:16:00,84.3,78.9,29.93,SW,230,14.0,19.0,84,0.00,,---,0.00,VWS V14.00,2013-06-12 21:16:00,
2013-06-12 17:21:00,84.3,79.3,29.94,WSW,246,12.0,19.0,85,0.00,,---,0.00,VWS V14.00,2013-06-12 21:21:00,
2013-06-12 17:26:00,84.1,79.1,29.93,SW,227,13.0,19.0,85,0.00,,---,0.00,VWS V14.00,2013-06-12 21:26:00,
2013-06-12 17:31:00,84.1,79.1,29.94,SW,220,14.0,17.0,85,0.00,,---,0.00,VWS V14.00,2013-06-12 21:31:00,
2013-06-12 17:36:00,84.0,79.4,29.93,SW,234,13.0,17.0,86,0.00,,---,0.00,VWS V14.00,2013-06-12 21:36:00,
2013-06-12 17:41:00,83.9,79.3,29.93,SW,227,12.0,17.0,86,0.00,,---,0.00,VWS V14.00,2013-06-12 21:41:00,
2013-06-12 17:46:00,83.8,79.2,29.93,SW,233,14.0,17.0,86,0.00,,---,0.00,VWS V14.00,2013-06-12 21:46:00,
2013-06-12 17:51:00,83.7,79.1,29.93,WSW,238,13.0,17.0,86,0.00,,---,0.00,VWS V14.00,2013-06-12 21:51:00,
2013-06-12 17:56:00,83.6,78.6,29.93,SW,231,14.0,17.0,85,0.00,,---,0.00,VWS V14.00,2013-06-12 21:56:00,
2013-06-12 18:01:00,83.5,79.2,29.93,WSW,242,10.0,17.0,87,0.00,,---,0.00,VWS V14.00,2013-06-12 22:01:00,
2013-06-12 18:06:00,83.5,79.2,29.93,WSW,253,11.0,17.0,87,0.00,,---,0.00,VWS V14.00,2013-06-12 22:06:00,
2013-06-12 18:11:00,83.4,78.8,29.92,SW,233,13.0,17.0,86,0.00,,---,0.00,VWS V14.00,2013-06-12 22:11:00,
2013-06-12 18:16:00,83.3,79.0,29.92,WSW,242,13.0,17.0,87,0.00,,---,0.00,VWS V14.00,2013-06-12 22:16:00,
2013-06-12 18:21:00,83.2,79.3,29.92,SW,224,12.0,17.0,88,0.00,,---,0.00,VWS V14.00,2013-06-12 22:21:00,
2013-06-12 18:26:00,83.0,79.1,29.93,SW,236,14.0,18.0,88,0.00,,---,0.00,VWS V14.00,2013-06-12 22:26:00,
2013-06-12 18:31:00,82.8,78.9,29.92,SSW,211,13.0,15.0,88,0.00,,---,0.00,VWS V14.00,2013-06-12 22:31:00,
2013-06-12 18:36:00,82.7,79.1,29.92,WSW,240,10.0,18.0,89,0.00,,---,0.00,VWS V14.00,2013-06-12 22:36:00,
2013-06-12 18:41:00,82.4,78.8,29.92,SW,233,12.0,18.0,89,0.00,,---,0.00,VWS V14.00,2013-06-12 22:41:00,
2013-06-12 18:46:00,82.2,79.0,29.92,SW,217,14.0,18.0,90,0.00,,---,0.00,VWS V14.00,2013-06-12 22:46:00,
2013-06-12 18:51:00,82.1,79.2,29.92,SW,225,11.0,18.0,91,0.00,,---,0.00,VWS V14.00,2013-06-12 22:51:00,
2013-06-12 18:56:00,81.9,78.7,29.92,SW,221,9.0,18.0,90,0.00,,---,0.00,VWS V14.00,2013-06-12 22:56:00,
2013-06-12 19:01:00,81.8,79.2,29.92,SW,220,13.0,13.0,92,0.00,,---,0.00,VWS V14.00,2013-06-12 23:01:00,
2013-06-12 19:06:00,81.7,79.2,29.92,SW,231,13.0,16.0,92,0.00,,---,0.00,VWS V14.00,2013-06-12 23:06:00,
2013-06-12 19:11:00,81.6,79.1,29.93,SW,236,14.0,16.0,92,0.00,,---,0.00,VWS V14.00,2013-06-12 23:11:00,
2013-06-12 19:16:00,81.4,78.9,29.93,SW,228,13.0,16.0,92,0.00,,---,0.00,VWS V14.00,2013-06-12 23:16:00,
2013-06-12 19:21:00,81.3,79.1,29.93,WSW,239,11.0,17.0,93,0.00,,---,0.00,VWS V14.00,2013-06-12 23:21:00,
2013-06-12 19:26:00,81.2,79.3,29.93,SW,235,8.0,17.0,94,0.00,,---,0.00,VWS V14.00,2013-06-12 23:26:00,
2013-06-12 19:31:00,81.0,79.4,29.93,SW,225,10.0,14.0,95,0.00,,---,0.00,VWS V14.00,2013-06-12 23:31:00,
2013-06-12 19:36:00,80.9,79.3,29.93,SW,230,9.0,18.0,95,0.00,,---,0.00,VWS V14.00,2013-06-12 23:36:00,
2013-06-12 19:41:00,80.8,79.6,29.94,WSW,244,9.0,18.0,96,0.00,,---,0.00,VWS V14.00,2013-06-12 23:41:00,
2013-06-12 19:46:00,80.7,79.8,29.94,SW,227,8.0,18.0,97,0.00,,---,0.00,VWS V14.00,2013-06-12 23:46:00,
2013-06-12 19:51:00,80.7,80.1,29.94,SW,228,7.0,18.0,98,0.00,,---,0.00,VWS V14.00,2013-06-12 23:51:00,
2013-06-12 19:56:00,80.5,80.2,29.94,WSW,251,9.0,18.0,99,0.00,,---,0.00,VWS V14.00,2013-06-12 23:56:00,
2013-06-12 20:01:00,80.5,80.5,29.94,WSW,253,5.0,10.0,100,0.00,,---,0.00,VWS V14.00,2013-06-13 00:01:00,
2013-06-12 20:06:00,80.5,80.5,29.94,WSW,243,10.0,11.0,100,0.00,,---,0.00,VWS V14.00,2013-06-13 00:06:00,
2013-06-12 20:11:00,80.4,80.4,29.94,WSW,256,8.0,11.0,100,0.00,,---,0.00,VWS V14.00,2013-06-13 00:11:00,
2013-06-12 20:16:00,80.3,80.3,29.94,WSW,255,5.0,12.0,100,0.00,,---,0.00,VWS V14.00,2013-06-13 00:16:00,
2013-06-12 20:21:00,80.2,80.2,29.94,WSW,258,7.0,12.0,100,0.00,,---,0.00,VWS V14.00,2013-06-13 00:21:00,
2013-06-12 20:26:00,80.2,80.2,29.94,West,262,6.0,12.0,100,0.00,,---,0.00,VWS V14.00,2013-06-13 00:26:00,
2013-06-12 20:31:00,80.1,80.1,29.94,WSW,257,5.0,10.0,100,0.00,,---,0.00,VWS V14.00,2013-06-13 00:31:00,
2013-06-12 20:36:00,80.1,80.1,29.95,WSW,247,7.0,10.0,100,0.00,,---,0.00,VWS V14.00,2013-06-13 00:36:00,
2013-06-12 20:41:00,80.1,80.1,29.94,WSW,256,7.0,11.0,100,0.00,,---,0.00,VWS V14.00,2013-06-13 00:41:00,
2013-06-12 20:46:00,80.0,80.0,29.94,WSW,251,5.0,11.0,100,0.00,,---,0.00,VWS V14.00,2013-06-13 00:46:00,
2013-06-12 20:51:00,79.9,79.9,29.94,WSW,255,6.0,11.0,100,0.00,,---,0.00,VWS V14.00,2013-06-13 00:51:00,
2013-06-12 20:56:00,79.9,79.9,29.94,WSW,246,5.0,11.0,100,0.00,,---,0.00,VWS V14.00,2013-06-13 00:56:00,
2013-06-12 21:01:00,79.8,79.8,29.94,WSW,258,4.0,8.0,100,0.00,,---,0.00,VWS V14.00,2013-06-13 01:01:00,
2013-06-12 21:06:00,79.8,79.8,29.94,WSW,243,6.0,8.0,100,0.00,,---,0.00,VWS V14.00,2013-06-13 01:06:00,
2013-06-12 21:11:00,79.7,79.7,29.94,WSW,242,5.0,9.0,100,0.00,,---,0.00,VWS V14.00,2013-06-13 01:11:00,
2013-06-12 21:16:00,79.7,79.7,29.94,WSW,251,6.0,9.0,100,0.00,,---,0.00,VWS V14.00,2013-06-13 01:16:00,
2013-06-12 21:21:00,79.7,79.7,29.94,SW,227,6.0,10.0,100,0.00,,---,0.00,VWS V14.00,2013-06-13 01:21:00,
2013-06-12 21:26:00,79.7,79.7,29.94,SW,224,5.0,10.0,100,0.00,,---,0.00,VWS V14.00,2013-06-13 01:26:00,
2013-06-12 21:31:00,79.6,79.6,29.94,SW,232,4.0,7.0,100,0.00,,---,0.00,VWS V14.00,2013-06-13 01:31:00,
2013-06-12 21:36:00,79.6,79.6,29.94,SW,223,6.0,12.0,100,0.00,,---,0.00,VWS V14.00,2013-06-13 01:36:00,
2013-06-12 21:41:00,79.6,79.6,29.94,SW,236,8.0,13.0,100,0.00,,---,0.00,VWS V14.00,2013-06-13 01:41:00,
2013-06-12 21:46:00,79.5,79.5,29.94,SW,233,6.0,13.0,100,0.00,,---,0.00,VWS V14.00,2013-06-13 01:46:00,
2013-06-12 21:51:00,79.5,79.5,29.94,WSW,243,6.0,14.0,100,0.00,,---,0.00,VWS V14.00,2013-06-13 01:51:00,
2013-06-12 21:56:00,79.5,79.5,29.94,WSW,240,6.0,14.0,100,0.00,,---,0.00,VWS V14.00,2013-06-13 01:56:00,
2013-06-12 22:01:00,79.4,79.4,29.94,SW,235,10.0,11.0,100,0.00,,---,0.00,VWS V14.00,2013-06-13 02:01:00,
2013-06-12 22:06:00,79.4,79.4,29.94,SW,228,7.0,11.0,100,0.00,,---,0.00,VWS V14.00,2013-06-13 02:06:00,
2013-06-12 22:11:00,79.4,79.4,29.94,SW,235,7.0,11.0,100,0.00,,---,0.00,VWS V14.00,2013-06-13 02:11:00,
2013-06-12 22:16:00,79.4,79.4,29.94,WSW,241,7.0,11.0,100,0.00,,---,0.00,VWS V14.00,2013-06-13 02:16:00,
2013-06-12 22:21:00,79.4,79.4,29.94,SW,229,8.0,11.0,100,0.00,,---,0.00,VWS V14.00,2013-06-13 02:21:00,
2013-06-12 22:26:00,79.4,79.4,29.94,WSW,241,8.0,11.0,100,0.00,,---,0.00,VWS V14.00,2013-06-13 02:26:00,
2013-06-12 22:31:00,79.4,79.4,29.94,WSW,242,11.0,12.0,100,0.00,,---,0.00,VWS V14.00,2013-06-13 02:31:00,
2013-06-12 22:36:00,79.4,79.4,29.95,WSW,246,6.0,12.0,100,0.00,,---,0.00,VWS V14.00,2013-06-13 02:36:00,
2013-06-12 22:41:00,79.4,79.4,29.95,WSW,251,7.0,12.0,100,0.00,,---,0.00,VWS V14.00,2013-06-13 02:41:00,
2013-06-12 22:46:00,79.4,79.4,29.94,SW,235,8.0,12.0,100,0.00,,---,0.00,VWS V14.00,2013-06-13 02:46:00,
2013-06-12 22:51:00,79.3,79.3,29.94,SW,230,6.0,12.0,100,0.00,,---,0.00,VWS V14.00,2013-06-13 02:51:00,
2013-06-12 22:56:00,79.3,79.3,29.94,SW,220,8.0,12.0,100,0.00,,---,0.00,VWS V14.00,2013-06-13 02:56:00,
2013-06-12 23:01:00,79.2,79.2,29.93,SW,233,12.0,12.0,100,0.00,,---,0.00,VWS V14.00,2013-06-13 03:01:00,
2013-06-12 23:06:00,79.2,79.2,29.93,WSW,243,12.0,13.0,100,0.00,,---,0.00,VWS V14.00,2013-06-13 03:06:00,
2013-06-12 23:11:00,79.2,79.2,29.93,SW,218,9.0,15.0,100,0.00,,---,0.00,VWS V14.00,2013-06-13 03:11:00,
2013-06-12 23:16:00,79.2,79.2,29.93,SW,235,9.0,15.0,100,0.00,,---,0.00,VWS V14.00,2013-06-13 03:16:00,
2013-06-12 23:21:00,79.2,79.2,29.93,WSW,238,9.0,15.0,100,0.00,,---,0.00,VWS V14.00,2013-06-13 03:21:00,
2013-06-12 23:26:00,79.2,79.2,29.92,SW,235,10.0,15.0,100,0.00,,---,0.00,VWS V14.00,2013-06-13 03:26:00,
2013-06-12 23:31:00,79.1,79.1,29.93,WSW,240,6.0,10.0,100,0.00,,---,0.00,VWS V14.00,2013-06-13 03:31:00,
2013-06-12 23:36:00,79.1,79.1,29.93,WSW,249,8.0,11.0,100,0.00,,---,0.00,VWS V14.00,2013-06-13 03:36:00,
2013-06-12 23:41:00,79.1,79.1,29.92,WSW,250,6.0,12.0,100,0.00,,---,0.00,VWS V14.00,2013-06-13 03:41:00,
2013-06-12 23:46:00,79.1,79.1,29.93,WSW,237,7.0,13.0,100,0.00,,---,0.00,VWS V14.00,2013-06-13 03:46:00,
2013-06-12 23:51:00,79.1,79.1,29.93,SW,227,9.0,13.0,100,0.00,,---,0.00,VWS V14.00,2013-06-13 03:51:00,
2013-06-12 23:56:00,79.1,79.1,29.93,WSW,241,7.0,13.0,100,0.00,,---,0.00,VWS V14.00,2013-06-13 03:56:00,